TimeEST,TemperatureF,Dew PointF,Humidity,Sea Level PressureIn,VisibilityMPH,Wind Direction,Wind SpeedMPH,Gust SpeedMPH,PrecipitationIn,Events,Conditions,WindDirDegrees,DateUTC
12:53 AM,34.0,21.9,61,29.99,10.0,Calm,Calm,-,N/A,,Clear,0,2012-12-24 05:53:00
1:53 AM,32.0,21.9,66,30.00,10.0,Calm,Calm,-,N/A,,Clear,0,2012-12-24 06:53:00
2:53 AM,28.9,21.9,75,30.01,10.0,North,5.8,-,N/A,,Clear,350,2012-12-24 07:53:00
3:53 AM,33.1,23.0,66,30.01,10.0,North,4.6,-,N/A,,Clear,350,2012-12-24 08:53:00
4:53 AM,30.9,21.9,69,30.02,10.0,Calm,Calm,-,N/A,,Clear,0,2012-12-24 09:53:00
5:53 AM,28.9,21.0,72,30.05,10.0,NE,3.5,-,N/A,,Clear,40,2012-12-24 10:53:00
6:53 AM,28.9,21.9,75,30.05,10.0,NW,3.5,-,N/A,,Clear,320,2012-12-24 11:53:00
7:53 AM,27.0,21.9,81,30.04,10.0,Calm,Calm,-,N/A,,Clear,0,2012-12-24 12:53:00
8:53 AM,30.9,25.0,79,30.05,10.0,Calm,Calm,-,N/A,,Clear,0,2012-12-24 13:53:00
9:53 AM,33.1,25.0,72,30.09,10.0,Calm,Calm,-,N/A,,Clear,0,2012-12-24 14:53:00
10:53 AM,35.1,25.0,67,30.07,10.0,Variable,3.5,-,N/A,,Partly Cloudy,0,2012-12-24 15:53:00
11:53 AM,37.0,24.1,59,30.04,10.0,Variable,4.6,-,N/A,,Overcast,0,2012-12-24 16:53:00
12:53 PM,36.0,24.1,62,30.01,10.0,SE,6.9,-,N/A,,Overcast,140,2012-12-24 17:53:00
1:09 PM,35.6,26.6,70,29.99,1.8,SE,8.1,-,0.00,Snow,Light Snow,140,2012-12-24 18:09:00
1:16 PM,33.8,26.6,75,29.98,1.2,Variable,6.9,-,0.00,Snow,Light Snow,0,2012-12-24 18:16:00
1:36 PM,33.8,28.4,81,29.97,0.8,Variable,3.5,-,0.00,Snow,Light Snow,0,2012-12-24 18:36:00
1:53 PM,33.1,30.0,89,29.98,0.5,Calm,Calm,-,0.01,Fog-Snow,Snow,0,2012-12-24 18:53:00
2:01 PM,33.8,30.2,87,29.97,0.5,ESE,3.5,-,0.01,Fog-Snow,Snow,110,2012-12-24 19:01:00
2:13 PM,32.0,30.2,93,29.96,0.2,East,3.5,-,0.03,Fog-Snow,Heavy Snow,90,2012-12-24 19:13:00
2:25 PM,32.0,30.2,93,29.95,0.2,ENE,5.8,-,0.04,Fog-Snow,Snow,70,2012-12-24 19:25:00
2:32 PM,32.0,30.2,93,29.95,0.5,ENE,5.8,-,0.05,Fog-Snow,Snow,70,2012-12-24 19:32:00
2:53 PM,32.0,30.0,92,29.96,0.2,NE,3.5,-,0.07,Fog-Snow,Heavy Snow,50,2012-12-24 19:53:00
3:25 PM,32.0,30.2,93,29.93,0.2,NE,4.6,-,0.06,Fog-Snow,Heavy Snow,40,2012-12-24 20:25:00
3:53 PM,32.0,30.0,92,29.94,0.2,NNE,4.6,-,0.11,Fog-Snow,Heavy Snow,20,2012-12-24 20:53:00
4:09 PM,32.0,30.2,93,29.92,0.2,NNE,3.5,-,0.03,Fog-Snow,Heavy Snow,20,2012-12-24 21:09:00
4:29 PM,32.0,30.2,93,29.92,0.2,NNE,4.6,-,0.06,Fog-Snow,Heavy Snow,20,2012-12-24 21:29:00
4:53 PM,32.0,30.0,92,29.94,0.5,North,3.5,-,0.10,Fog-Snow,Snow,10,2012-12-24 21:53:00
5:24 PM,32.0,30.2,93,29.92,1.0,Calm,Calm,-,0.03,Snow,Light Snow,0,2012-12-24 22:24:00
5:32 PM,32.0,30.2,93,29.92,1.0,North,3.5,-,0.04,Snow,Light Snow,10,2012-12-24 22:32:00
5:53 PM,32.0,30.0,92,29.93,1.2,Calm,Calm,-,0.05,Snow,Light Snow,0,2012-12-24 22:53:00
6:19 PM,32.0,30.2,93,29.92,1.8,Calm,Calm,-,0.00,,Overcast,0,2012-12-24 23:19:00
6:28 PM,32.0,30.2,93,29.92,1.8,Calm,Calm,-,0.00,,Overcast,0,2012-12-24 23:28:00
6:53 PM,32.0,30.0,92,29.93,1.8,Calm,Calm,-,0.00,,Overcast,0,2012-12-24 23:53:00
7:43 PM,32.0,30.2,93,29.90,2.0,Calm,Calm,-,N/A,,Overcast,0,2012-12-25 00:43:00
7:53 PM,32.0,30.0,92,29.92,2.0,Calm,Calm,-,N/A,,Overcast,0,2012-12-25 00:53:00
8:49 PM,32.0,30.2,93,29.89,1.8,Calm,Calm,-,N/A,,Overcast,0,2012-12-25 01:49:00
8:53 PM,32.0,30.0,92,29.91,1.8,Calm,Calm,-,N/A,,Overcast,0,2012-12-25 01:53:00
9:53 PM,32.0,30.0,92,29.91,1.8,Calm,Calm,-,N/A,,Overcast,0,2012-12-25 02:53:00
10:53 PM,32.0,30.0,92,29.92,1.5,Calm,Calm,-,N/A,,Overcast,0,2012-12-25 03:53:00
11:53 PM,32.0,30.0,92,29.92,1.5,Calm,Calm,-,0.00,,Overcast,0,2012-12-25 04:53:00